Regional Weather Roundup
Issued by NWS Green Bay, WI

Home | Current Version | Previous Version | Graphics & Text | Print | Product List | Glossary Off
Versions: 1 2 3 4 5 6 7 8 9 10 11 12 13 14 15 16 17 18 19 20 21 22 23 24 25 26 27 28 29 30 31 32 33 34 35 36 37 38 39 40 41 42 43 44 45 46 47 48 49 50

000
ASUS43 KGRB 282100
RWRGRB

NORTH-CENTRAL AND NORTHEAST WISCONSIN REGIONAL WEATHER ROUNDUP
NATIONAL WEATHER SERVICE GREEN BAY WI
400 PM CDT FRI AUG 28 2015

WIZ005-009-010>012-018-019-282200-
NORTH CENTRAL WISCONSIN

CITY           SKY/WX    TMP DP  RH WIND       PRES   REMARKS
IRONWOOD       PTSUNNY   77  64  65 W10G20    29.95F
MANITOWISH WTR NOT AVBL
ARBOR VITAE    NOT AVBL
EAGLE RIVER    NOT AVBL
LAND O LAKES   NOT AVBL
RHINELANDER    CLOUDY    70  61  73 SW8       30.06F
PHILLIPS       PTSUNNY   69  62  78 W5        30.04S
ANTIGO         NOT AVBL
TOMAHAWK       NOT AVBL
MERRILL        CLOUDY    66  63  88 S6        30.06F
$$

WIZ013-073-282200-
NORTHEAST WISCONSIN

CITY           SKY/WX    TMP DP  RH WIND       PRES   REMARKS
IRON MOUNTAIN  CLOUDY    75  62  64 SW9       30.00F
MARINETTE      CLOUDY    72  61  68 SW12      30.03F
$$

WIZ017-030-035>037-045-282200-
CENTRAL WISCONSIN

CITY           SKY/WX    TMP DP  RH WIND       PRES   REMARKS
MEDFORD        NOT AVBL
WAUSAU         LGT RAIN  65  62  90 S8        30.06F
MOSINEE        LGT RAIN  63  63 100 S8        30.10S
MARSHFIELD     RAIN      64  60  87 S6        30.06F FOG
WISC RAPIDS    LGT RAIN  64  60  87 SE5       30.08F
STEVENS POINT  NOT AVBL
WAUPACA        NOT AVBL
SHAWANO        NOT AVBL
CLINTONVILLE   DRIZZLE   64  61  88 SW3       30.08F
WAUTOMA        NOT AVBL
$$

WIZ038-039-048-051-282200-
FOX VALLEY

CITY           SKY/WX    TMP DP  RH WIND       PRES   REMARKS
NWS GREEN BAY  CLOUDY    69  62  78 SW5       30.08F
APPLETON       CLOUDY    66  57  72 SW9       30.09S
OSHKOSH        LGT RAIN  67  62  84 SW3       30.09F
FOND DU LAC    CLOUDY    68  62  81 SW3       30.10F
$$

WIZ022-050-052-282200-
EAST CENTRAL WISCONSIN

CITY           SKY/WX    TMP DP  RH WIND       PRES   REMARKS
EPHRAIM        FAIR      68  60  75 S8        30.05F
STURGEON BAY   CLOUDY    70  61  73 SW8       30.09S
MANITOWOC      NOT AVBL
SHEBOYGAN      LGT RAIN  69  62  78 SW6       30.10F
$$

LMZ563-521-522-541>543-282200-
LAKESHORE

STATION/POSITION TIME  TEMP    WIND        PRES    VSBY  WAVE
                       AIR SEA DIR/SP/G                  HT/PER
                 (UTC) (F)     (DEG/KT/KT) (MB)    (MI)  (FT/S)
SHEBOYGAN LKSHOR 2000   62     190/  9/  9 1019.8S
ALGOMA MARINA    2014          210/ 12/ 14   N/A
NORTHPORT PIER   2000   67     170/  5/ 11 1017.9F
N MID LAKE BUOY  1950   64 64  190/ 19/ 21 1017.7F         3/ 5
S GREEN BAY BUOY 2030   66 62  210/ 14/ 16 1019.6F
SISTER BAY LKSHO 2004   71     180/ 11/ 13   N/A
CHAMBERS ISLAND  2000   70     180/  6/ 16 1017.6F
$$


USA.gov is the U.S. government's official web portal to all federal, state and local government web resources and services.